KC5CPO Weather Reports


time (UTC)temp
C
wind
direction
speed
KPH
gust
KPH
rain 1hr
cm
rain 24hr
cm
rain mn
cm
humidity
%
barometer
mb
20260506134423 12 270 8.0 17.7 0.00 0.00 0.00 82 1006.8
20260506133922 12 248 4.8 4.8 0.00 0.00 0.00 82 1006.8
20260506133421 12 270 8.0 9.7 0.00 0.00 0.00 82 1006.4
20260506132924 12 270 9.7 11.3 0.00 0.00 0.00 81 1006.1
20260506132421 12 248 6.4 9.7 0.00 0.00 0.00 81 1006.1
20260506131922 12 270 9.7 12.9 0.00 0.00 0.00 80 1005.8
20260506131422 12 270 12.9 16.1 0.00 0.00 0.00 79 1005.8
20260506130927 12 248 4.8 4.8 0.00 0.00 0.00 80 1005.8
20260506130422 12 248 9.7 11.3 0.00 0.00 0.00 80 1005.8
20260506125924 12 270 6.4 16.1 0.00 0.00 0.00 80 1005.8
20260506125422 13 248 6.4 8.0 0.00 0.00 0.00 80 1005.4
20260506124922 12 270 3.2 3.2 0.00 0.00 0.00 80 1005.4
20260506124421 12 270 3.2 6.4 0.00 0.00 0.00 81 1005.4
20260506123921 12 270 4.8 6.4 0.00 0.00 0.00 80 1005.4
20260506123421 12 248 11.3 16.1 0.00 0.00 0.00 80 1005.4
20260506122922 13 270 14.5 20.9 0.00 0.00 0.00 80 1005.1
20260506122422 13 248 3.2 4.8 0.00 0.00 0.00 81 1005.1
20260506121435 13 270 9.7 14.5 0.00 0.00 0.00 81 1005.1
20260506120921 13 203 4.8 6.4 0.00 0.00 0.00 81 1005.1
20260506120422 13 248 11.3 12.9 0.00 0.00 0.00 81 1005.1
20260506115921 13 270 6.4 8.0 0.00 0.00 0.00 81 1005.1
20260506115422 13 270 12.9 17.7 0.00 0.00 0.00 81 1005.1
20260506114922 13 248 12.9 24.1 0.00 0.00 0.00 81 1004.7
20260506114422 13 270 6.4 11.3 0.00 0.00 0.00 82 1005.1
20260506113922 13 270 14.5 19.3 0.00 0.00 0.00 81 1004.7
20260506113422 13 270 6.4 8.0 0.00 0.00 0.00 81 1004.7
20260506112924 13 270 4.8 6.4 0.00 0.00 0.00 81 1004.4
20260506112422 13 270 20.9 25.7 0.00 0.00 0.00 80 1004.4
20260506111922 13 270 11.3 14.5 0.00 0.00 0.00 80 1004.4
20260506111422 13 270 6.4 9.7 0.00 0.00 0.00 80 1004.4
20260506110923 13 270 4.8 6.4 0.00 0.00 0.00 81 1004.4
20260506110421 13 270 12.9 16.1 0.00 0.00 0.00 81 1004.1
20260506105923 14 248 11.3 14.5 0.00 0.00 0.00 81 1004.4
20260506105422 14 270 6.4 9.7 0.00 0.00 0.00 81 1004.1
20260506104921 14 270 8.0 11.3 0.00 0.00 0.00 80 1004.1
20260506104421 14 248 8.0 12.9 0.00 0.00 0.00 80 1003.7
20260506103921 14 270 9.7 11.3 0.00 0.00 0.00 80 1004.1
20260506103422 14 270 9.7 12.9 0.00 0.00 0.00 80 1003.7
20260506102922 14 270 11.3 12.9 0.00 0.00 0.00 80 1003.7
20260506102421 15 270 6.4 9.7 0.00 0.00 0.00 80 1003.7
20260506101923 15 203 4.8 6.4 0.00 0.00 0.00 80 1003.4
20260506101421 15 248 6.4 8.0 0.00 0.00 0.00 80 1003.4
20260506100921 15 248 8.0 11.3 0.00 0.00 0.00 80 1003.0
20260506100421 15 270 3.2 3.2 0.00 0.00 0.00 81 1003.4
20260506095921 15 225 4.8 8.0 0.00 0.00 0.00 80 1003.0
20260506095421 15 225 11.3 12.9 0.00 0.00 0.00 79 1003.0
20260506094922 15 270 4.8 11.3 0.00 0.00 0.00 79 1003.0
20260506094422 15 270 6.4 8.0 0.00 0.00 0.00 80 1002.7
20260506093921 15 270 3.2 3.2 0.00 0.00 0.00 80 1002.7
20260506093421 15 248 3.2 3.2 0.00 0.00 0.00 81 1003.0
20260506092923 15 248 3.2 8.0 0.00 0.00 0.00 80 1002.7
20260506092422 15 270 9.7 11.3 0.00 0.00 0.00 80 1002.7
20260506091924 15 248 4.8 6.4 0.00 0.00 0.00 81 1002.7
20260506091422 15 270 6.4 8.0 0.00 0.00 0.00 81 1003.0
20260506090922 15 248 6.4 8.0 0.00 0.00 0.00 81 1002.7
20260506090421 16 203 4.8 6.4 0.00 0.00 0.00 81 1002.7
20260506085921 16 225 6.4 8.0 0.00 0.00 0.00 81 1003.0
20260506085422 16 248 6.4 8.0 0.00 0.00 0.00 81 1002.7
20260506084921 16 270 3.2 6.4 0.00 0.00 0.00 82 1003.0
20260506084422 16 270 3.2 3.2 0.00 0.00 0.00 82 1002.7
20260506083921 16 270 3.2 6.4 0.00 0.00 0.00 82 1002.7
20260506083421 16 248 6.4 8.0 0.00 0.00 0.00 82 1002.7
20260506082921 16 270 3.2 3.2 0.00 0.00 0.00 82 1002.7
20260506082421 16 203 4.8 8.0 0.00 0.00 0.00 82 1002.7
20260506081922 16 270 8.0 9.7 0.00 0.00 0.00 82 1002.7
20260506081425 16 270 4.8 8.0 0.00 0.00 0.00 82 1002.4
20260506080921 16 270 8.0 11.3 0.00 0.00 0.00 82 1002.7
20260506080421 16 270 4.8 6.4 0.00 0.00 0.00 82 1002.4
20260506073424 16 270 3.2 4.8 0.00 0.00 0.00 82 1002.4
20260506072921 16 270 4.8 6.4 0.00 0.00 0.00 82 1002.4
20260506072421 16 248 6.4 8.0 0.00 0.00 0.00 82 1002.4
20260506071921 16 270 8.0 11.3 0.00 0.00 0.00 81 1002.4
20260506071421 16 270 6.4 8.0 0.00 0.00 0.00 81 1002.4
20260506070922 16 270 3.2 3.2 0.00 0.00 0.00 82 1002.4
20260506070422 16 248 4.8 8.0 0.00 0.00 0.00 81 1002.4
20260506062421 17 270 9.7 12.9 0.00 0.00 0.00 80 1002.4
20260506061922 17 270 4.8 8.0 0.00 0.00 0.00 80 1002.4
20260506061422 17 270 8.0 9.7 0.00 0.00 0.00 80 1002.4
20260506060921 17 248 3.2 4.8 0.00 0.00 0.00 80 1002.4
20260506060424 17 248 8.0 11.3 0.00 0.00 0.00 80 1002.4
20260506050923 18 248 8.0 8.0 0.00 0.00 0.00 78 1002.4
20260506050422 19 248 8.0 11.3 0.00 0.00 0.00 78 1002.0
20260506044922 19 248 3.2 3.2 0.00 0.00 0.00 77 1002.0
20260506044421 19 225 11.3 16.1 0.00 0.00 0.00 76 1002.4
20260506043922 20 203 8.0 9.7 0.00 0.00 0.00 76 1002.4
20260506043422 20 225 4.8 8.0 0.00 0.00 0.00 75 1002.0
20260506042921 20 203 14.5 19.3 0.00 0.00 0.00 75 1002.7
20260506042423 20 248 11.3 11.3 0.00 0.00 0.00 75 1002.4
20260506041922 20 203 11.3 14.5 0.00 0.00 0.00 74 1002.4
20260506041423 20 270 6.4 9.7 0.00 0.00 0.00 73 1002.0
20260506040922 20 248 9.7 16.1 0.00 0.00 0.00 73 1002.4
20260506040422 20 203 4.8 8.0 0.00 0.00 0.00 73 1002.0
20260506035921 20 203 4.8 6.4 0.00 0.00 0.00 73 1001.7
20260506035422 20 248 4.8 6.4 0.00 0.00 0.00 73 1001.7
20260506034921 20 248 6.4 8.0 0.00 0.00 0.00 73 1001.7
20260506034421 20 203 11.3 12.9 0.00 0.00 0.00 73 1002.0
20260506033921 20 248 12.9 20.9 0.00 0.00 0.00 73 1001.7
20260506033422 21 180 6.4 8.0 0.00 0.00 0.00 73 1001.7
20260506032922 21 203 6.4 8.0 0.00 0.00 0.00 74 1001.4
20260506032422 21 270 4.8 6.4 0.00 0.00 0.00 73 1001.0
20260506031923 21 203 4.8 4.8 0.00 0.00 0.00 73 1001.0
20260506031423 21 203 3.2 4.8 0.00 0.00 0.00 73 1001.0
20260506030921 21 248 3.2 4.8 0.00 0.00 0.00 72 1001.0
20260506030421 21 270 4.8 6.4 0.00 0.00 0.00 71 1000.7
20260506025922 22 270 4.8 6.4 0.00 0.00 0.00 71 1001.0
20260506025421 22 270 8.0 8.0 0.00 0.00 0.00 71 1001.0
20260506024922 22 248 3.2 4.8 0.00 0.00 0.00 71 1001.4
20260506024421 22 225 8.0 14.5 0.00 0.00 0.00 70 1000.7
20260506023922 22 203 4.8 8.0 0.00 0.00 0.00 70 1000.7
20260506023422 22 270 1.6 3.2 0.00 0.00 0.00 70 1000.7
20260506022921 23 270 4.8 6.4 0.00 0.00 0.00 69 1000.3
20260506022422 23 203 3.2 3.2 0.00 0.00 0.00 69 1000.3
20260506021922 23 270 11.3 16.1 0.00 0.00 0.00 68 1000.3
20260506021423 23 248 6.4 8.0 0.00 0.00 0.00 68 1000.0
20260506020922 23 248 8.0 9.7 0.00 0.00 0.00 68 1000.0
20260506020423 23 270 8.0 11.3 0.00 0.00 0.00 67 999.7
20260506015922 24 270 4.8 6.4 0.00 0.00 0.00 66 999.7
20260506015422 25 248 9.7 11.3 0.00 0.00 0.00 65 999.7
20260506014922 25 270 4.8 6.4 0.00 0.00 0.00 66 999.3
20260506014422 25 248 6.4 8.0 0.00 0.00 0.00 65 999.3
20260506013922 25 248 6.4 11.3 0.00 0.00 0.00 66 999.0
20260506013421 25 248 4.8 8.0 0.00 0.00 0.00 65 999.0
20260506012923 25 248 6.4 8.0 0.00 0.00 0.00 64 999.3
20260506012421 25 180 1.6 1.6 0.00 0.00 0.00 64 999.0
20260506011921 25 225 8.0 11.3 0.00 0.00 0.00 63 998.6
20260506011421 25 203 4.8 6.4 0.00 0.00 0.00 63 998.6
20260506010923 26 248 3.2 8.0 0.00 0.00 0.00 63 999.3
20260506010422 26 225 3.2 3.2 0.00 0.00 0.00 62 999.0
20260506005921 26 248 4.8 6.4 0.00 0.00 0.00 62 998.6
20260506005421 26 248 3.2 4.8 0.00 0.00 0.00 62 998.6
20260506004922 26 248 1.6 3.2 0.00 0.00 0.00 62 998.3
20260506004422 26 248 6.4 14.5 0.00 0.00 0.00 61 998.3
20260506003922 26 248 8.0 11.3 0.00 0.00 0.00 61 998.3
20260506003421 26 248 3.2 3.2 0.00 0.00 0.00 62 998.6
20260506002922 26 248 4.8 4.8 0.00 0.00 0.00 63 998.3
20260506002421 26 248 6.4 11.3 0.00 0.00 0.00 63 998.3
20260506001921 27 248 0.0 1.6 0.00 0.00 0.00 63 998.6
20260506001422 27 248 9.7 16.1 0.00 0.00 0.00 62 998.6
20260506000921 28 225 4.8 6.4 0.00 0.00 0.00 72 998.3
20260506000423 28 248 4.8 4.8 0.00 0.00 0.00 75 998.3
20260505235921 28 248 4.8 8.0 0.00 0.00 0.00 74 998.0
20260505235421 28 225 8.0 11.3 0.00 0.00 0.00 73 998.0
20260505234921 28 180 4.8 8.0 0.00 0.00 0.00 73 997.6
20260505234422 28 225 1.6 3.2 0.00 0.00 0.00 73 997.6
20260505233921 29 248 3.2 6.4 0.00 0.00 0.00 73 997.6
20260505233421 29 203 6.4 8.0 0.00 0.00 0.00 72 997.6
20260505232922 29 248 1.6 3.2 0.00 0.00 0.00 72 998.0
20260505232421 30 180 4.8 4.8 0.00 0.00 0.00 71 998.0
20260505231921 30 180 8.0 11.3 0.00 0.00 0.00 68 997.6
20260505231422 31 225 6.4 8.0 0.00 0.00 0.00 66 997.6
20260505230921 31 248 1.6 3.2 0.00 0.00 0.00 65 997.3
20260505230422 32 225 1.6 3.2 0.00 0.00 0.00 64 997.6
20260505225921 32 225 4.8 6.4 0.00 0.00 0.00 62 997.6
20260505225423 32 203 4.8 8.0 0.00 0.00 0.00 62 997.6
20260505224924 33 203 3.2 3.2 0.00 0.00 0.00 58 997.6
20260505224421 33 180 3.2 4.8 0.00 0.00 0.00 55 997.3
20260505223921 33 225 1.6 3.2 0.00 0.00 0.00 54 997.6
20260505223421 33 180 1.6 3.2 0.00 0.00 0.00 55 997.6
20260505222921 33 180 3.2 4.8 0.00 0.00 0.00 53 997.3
20260505222421 33 203 4.8 6.4 0.00 0.00 0.00 53 997.3
20260505221922 33 225 3.2 4.8 0.00 0.00 0.00 54 997.3
20260505221421 33 180 1.6 3.2 0.00 0.00 0.00 55 997.3
20260505220921 33 203 4.8 4.8 0.00 0.00 0.00 57 997.3
20260505220422 33 248 3.2 4.8 0.00 0.00 0.00 53 997.3
20260505215922 33 180 9.7 11.3 0.00 0.00 0.00 51 997.0
20260505215423 33 248 4.8 8.0 0.00 0.00 0.00 52 997.3
20260505214921 33 203 3.2 4.8 0.00 0.00 0.00 50 997.3
20260505214421 33 248 3.2 3.2 0.00 0.00 0.00 52 997.3
20260505213921 34 180 4.8 6.4 0.00 0.00 0.00 49 997.3
20260505213421 35 180 1.6 3.2 0.00 0.00 0.00 49 997.3
20260505212921 34 203 3.2 3.2 0.00 0.00 0.00 50 997.3
20260505212421 33 225 4.8 6.4 0.00 0.00 0.00 52 997.3
20260505211921 33 248 3.2 6.4 0.00 0.00 0.00 51 997.3
20260505211421 34 180 4.8 6.4 0.00 0.00 0.00 52 997.6
20260505210922 35 248 4.8 8.0 0.00 0.00 0.00 51 997.6
20260505210421 35 203 6.4 8.0 0.00 0.00 0.00 50 997.6
20260505205921 34 203 6.4 8.0 0.00 0.00 0.00 50 997.6
20260505205422 35 180 9.7 11.3 0.00 0.00 0.00 49 998.0
20260505204921 34 203 1.6 3.2 0.00 0.00 0.00 51 998.0
20260505204421 33 225 8.0 12.9 0.00 0.00 0.00 51 998.0
20260505203923 33 225 3.2 6.4 0.00 0.00 0.00 50 997.6
20260505203422 33 180 6.4 11.3 0.00 0.00 0.00 50 997.6
20260505202923 34 180 8.0 11.3 0.00 0.00 0.00 50 998.0
20260505202422 33 203 8.0 9.7 0.00 0.00 0.00 52 998.0
20260505201921 33 248 4.8 6.4 0.00 0.00 0.00 51 998.3
20260505201421 33 248 6.4 9.7 0.00 0.00 0.00 54 998.0
20260505200922 32 203 6.4 9.7 0.00 0.00 0.00 54 998.0
20260505200422 33 203 8.0 12.9 0.00 0.00 0.00 52 998.3
20260505195921 32 203 6.4 8.0 0.00 0.00 0.00 54 998.3
20260505195425 32 203 4.8 8.0 0.00 0.00 0.00 56 998.3
20260505194921 32 203 6.4 8.0 0.00 0.00 0.00 56 998.3
20260505194422 32 225 6.4 9.7 0.00 0.00 0.00 58 998.0
20260505193921 31 203 12.9 16.1 0.00 0.00 0.00 61 998.3
20260505193422 31 203 6.4 8.0 0.00 0.00 0.00 58 998.3
20260505192921 31 225 4.8 6.4 0.00 0.00 0.00 59 998.6
20260505192422 31 248 4.8 9.7 0.00 0.00 0.00 60 998.3
20260505191922 31 180 4.8 8.0 0.00 0.00 0.00 59 998.6
20260505191422 31 180 4.8 4.8 0.00 0.00 0.00 62 998.6
20260505190921 31 203 6.4 8.0 0.00 0.00 0.00 59 998.6
20260505190422 31 180 8.0 12.9 0.00 0.00 0.00 61 998.6
20260505185922 31 225 8.0 12.9 0.00 0.00 0.00 60 998.6
20260505185422 30 203 4.8 8.0 0.00 0.00 0.00 62 999.0
20260505184921 31 203 12.9 16.1 0.00 0.00 0.00 63 998.6
20260505184421 31 225 3.2 4.8 0.00 0.00 0.00 65 998.6
20260505183921 30 180 3.2 8.0 0.00 0.00 0.00 65 998.6
20260505183422 30 203 4.8 8.0 0.00 0.00 0.00 66 998.6
20260505182922 30 180 6.4 9.7 0.00 0.00 0.00 65 999.0
20260505182421 30 180 4.8 8.0 0.00 0.00 0.00 65 999.0
20260505181921 30 203 6.4 8.0 0.00 0.00 0.00 64 999.0
20260505181421 30 225 8.0 11.3 0.00 0.00 0.00 62 998.6
20260505180922 30 248 3.2 4.8 0.00 0.00 0.00 65 999.0
20260505180422 30 248 3.2 3.2 0.00 0.00 0.00 65 999.3
20260505175921 29 180 6.4 8.0 0.00 0.00 0.00 67 999.0
20260505175422 28 203 4.8 4.8 0.00 0.00 0.00 68 999.3
20260505174922 28 203 3.2 6.4 0.00 0.00 0.00 69 999.3
20260505174424 28 180 6.4 11.3 0.00 0.00 0.00 71 999.0
20260505173923 27 225 6.4 8.0 0.00 0.00 0.00 71 999.0
20260505173422 27 225 8.0 11.3 0.00 0.00 0.00 71 999.0
20260505172921 27 180 6.4 9.7 0.00 0.00 0.00 70 999.0
20260505172421 27 203 9.7 11.3 0.00 0.00 0.00 71 998.6
20260505171922 27 225 8.0 11.3 0.00 0.00 0.00 71 998.6
20260505171421 27 203 8.0 11.3 0.00 0.00 0.00 70 998.6
20260505170923 27 203 4.8 8.0 0.00 0.00 0.00 72 999.0
20260505170422 27 203 14.5 24.1 0.00 0.00 0.00 73 998.6
20260505165922 27 248 9.7 19.3 0.00 0.00 0.00 73 998.6
20260505165421 27 203 8.0 11.3 0.00 0.00 0.00 74 998.6
20260505164922 26 180 8.0 16.1 0.00 0.00 0.00 75 998.6
20260505164422 26 203 11.3 16.1 0.00 0.00 0.00 74 998.6
20260505163922 26 225 3.2 6.4 0.00 0.00 0.00 75 998.6
20260505163422 26 248 11.3 16.1 0.00 0.00 0.00 74 998.6
20260505162921 26 248 6.4 8.0 0.00 0.00 0.00 75 998.6
20260505162423 27 248 9.7 14.5 0.00 0.00 0.00 74 998.6
20260505161921 26 225 11.3 17.7 0.00 0.00 0.00 73 998.6
20260505161422 26 225 9.7 14.5 0.00 0.00 0.00 75 998.6
20260505160922 26 203 8.0 9.7 0.00 0.00 0.00 74 998.6
20260505160422 26 180 9.7 11.3 0.00 0.00 0.00 76 998.6
20260505152922 26 248 6.4 12.9 0.00 0.00 0.00 79 998.6
20260505152423 25 180 11.3 12.9 0.00 0.00 0.00 78 998.6
20260505151921 25 248 12.9 17.7 0.00 0.00 0.00 80 998.6
20260505151421 25 203 6.4 12.9 0.00 0.00 0.00 81 998.6
20260505150924 25 203 11.3 14.5 0.00 0.00 0.00 81 998.6
20260505150422 25 248 4.8 8.0 0.00 0.00 0.00 81 998.6
20260505140422 22 225 8.0 16.1 0.00 0.00 0.00 87 998.0